Regional Weather Roundup
Issued by NWS

Home | Current Version | Previous Version | Text Only | Print | Product List | Glossary Off
Versions: 1 2 3 4 5 6 7 8 9 10 11 12 13 14 15 16 17 18 19 20 21 22 23 24 25 26 27 28 29 30 31 32 33 34 35 36 37 38 39 40 41 42 43 44 45 46 47 48 49 50

000
ASUS45 KBOU 300107
RWRCO

WEATHER ROUNDUP FOR COLORADO
NATIONAL WEATHER SERVICE DENVER/BOULDER CO
700 PM MDT SAT AUG 29 2015

NOTE: "FAIR" INDICATES FEW OR NO CLOUDS BELOW 12000 FEET WITH NO
SIGNIFICANT WEATHER AND/OR OBSTRUCTIONS TO VISIBILITY.

COZ001>005-013-030-031-300200-
...NORTHWEST COLORADO...

CITY           SKY/WX    TMP DP  RH WIND       PRES   REMARKS
CRAIG          PTCLDY    80  38  22 S8        30.16F
HAYDEN         NOT AVBL
MEEKER         PTCLDY    79  37  22 SW6       30.18S
MOUNT WERNER   NOT AVBL
STEAMBOAT SPGS PTCLDY    79  34  19 CALM      30.23S
WALDEN         CLEAR     72  32  23 SW8       30.34S
$$

COZ006>008-011-300200-
...WEST CENTRAL VALLEYS...

CITY           SKY/WX    TMP DP  RH WIND       PRES   REMARKS
GRAND JUNCTION CLEAR     87  36  16 W6        30.05F
MONTROSE       CLEAR     87  36  16 N5        30.15F
EAGLE          PTCLDY    82  37  20 W8        30.22S
RIFLE          CLEAR     86  36  16 W12       30.11F
DELTA          CLEAR     91  33  12 CALM      30.09S
NUCLA          CLEAR     86  30  13 S9        30.19F
$$

COZ017>023-064>068-300200-
...SOUTHWEST COLORADO...

CITY           SKY/WX    TMP DP  RH WIND       PRES   REMARKS
DURANGO        PTCLDY    81  39  22 N9        30.24F
CORTEZ         CLEAR     85  35  16 W3        30.16F
PAGOSA SPRINGS PTCLDY    77  32  19 W3        30.33F
TELLURIDE      PTCLDY    70  37  30 SW3       30.46F
WOLF CREEK PAS PTCLDY    54  34  47 SW12G22   30.69S
$$

COZ009-010-012-014-032>034-037-058>063-300200-
...CENTRAL COLORADO...

CITY           SKY/WX    TMP DP  RH WIND       PRES   REMARKS
ASPEN          PTCLDY    75  37  25 N7        30.30F
BUENA VISTA    CLOUDY    77  36  22 E7G17     30.32S
COPPER MTN     MOCLDY    61  32  33 W18       30.67S
BERTHOUD PASS  MOCLDY    50  37  62 E10       30.73F
COTTONWOOD PAS CLOUDY    70  34  26 CALM      30.48S
GUNNISON       PTCLDY    77  36  22 N5        30.33S
KREMMLING      CLEAR     77  28  16 SW7       30.27F
LEADVILLE      PTCLDY    67  34  29 NW9       30.47S
SALIDA         PTCLDY    78  41  26 SE10G18   30.35S
SUNLIGHT       CLEAR     63  39  42 CALM      30.59F
WILKERSON PASS PTCLDY    59  36  41 SW8       30.62F
$$

COZ069>075-300200-
...SAN LUIS VALLEY/SANGRE DE CRISTO MOUNTAINS...

CITY           SKY/WX    TMP DP  RH WIND       PRES   REMARKS
ALAMOSA        PTCLDY    75  36  24 S8        30.31S
LA VETA PASS   PTCLDY    59  37  44 SE7       30.54F
SAGUACHE       PTCLDY    73  41  31 SW6       30.33S
$$

COZ035-036-038>040-300200-
...NORTHERN COLORADO FRONT RANGE...

CITY           SKY/WX    TMP DP  RH WIND       PRES   REMARKS
DENVER INTL AP PTCLDY    83  43  24 S14       30.12S
DMNS CITY PARK   N/A     83  43  24 SE13G20   30.11S
AURORA         PTCLDY    82  45  27 S15       30.15S
FRONT RANGE AP NOT AVBL
ERIE MUNI ARPT CLEAR     87  35  15 SE3       30.08F
BOULDER MUN AP CLEAR     86  39  19 CALM      30.10S
CENTENNIAL     PTCLDY    80  44  27 SE15      30.17R
BROOMFIELD     PTCLDY    84  43  23 S9        30.14F
FORT COLLINS   CLEAR     86  39  19 E5        30.06S
LONGMONT       CLEAR     88  38  17 CALM      30.10S
$$

COZ041-046-047-076>085-087-088-300200-
...PIKES PEAK/PALMER DIVIDE AND SOUTHERN FOOTHILLS...

CITY           SKY/WX    TMP DP  RH WIND       PRES   REMARKS
COLO. SPRINGS  PTCLDY    78  40  25 SE15      30.23S
A. F. ACADEMY  PTCLDY    76  40  26 SE15G25   30.24R
ELLICOTT       CLEAR    N/A N/A N/A S9        30.23S
FALCON         CLEAR     72  41  33 MISG      30.30S
FORT CARSON    CLEAR     78  43  28 SE13      30.20S
LIMON          CLEAR     75  41  29 S9        30.18F
MONUMENT HILL  CLEAR     70  39  32 S10       30.28S
TRINIDAD       CLEAR     80  44  27 SE13G23   30.20S
$$

COZ042>045-048>051-090-091-300200-
...NORTHEAST COLORADO...

CITY           SKY/WX    TMP DP  RH WIND       PRES   REMARKS
GREELEY ARPT   CLEAR     82  46  28 E8        30.07F
AKRON          CLEAR     83  42  23 S12       30.11F
BURLINGTON     CLEAR     75  49  39 S8        30.13S
WRAY           MOCLDY    86  40  19 S9        30.07S
STERLING       CLEAR     82  46  28 S7        30.04S
HOLYOKE        CLEAR     79  52  38 SE7       30.07S
FORT MORGAN    NOT AVBL
$$

COZ086-089-092>099-300200-
...SOUTHEAST COLORADO...

CITY           SKY/WX    TMP DP  RH WIND       PRES   REMARKS
PUEBLO         CLEAR     86  42  21 E15       30.10S
LA JUNTA       CLEAR     85  39  19 SE12      30.10F
LAMAR          CLEAR     79  45  29 SE8       30.08S HAZE
SPRINGFIELD      N/A     76  44  32 SE10      30.16
$$




USA.gov is the U.S. government's official web portal to all federal, state and local government web resources and services.